(11) Parthenope
ephemeris date magn radius delta ra dec elong phase
Opposition13 Nov 20249.82.429 AU1.444 AU03h25m+10°57'172.5°3.1°
Today21 Nov 20249.92.437 AU1.461 AU03h17m+10°36'168.4°4.7°
(11) Parthenope - 2024-11-21
astro.vanbuitenen.nl


 
-1 year
-1 month
-1 day
Now
+1 day
+1 month
+1 year

The interactive orbit chart above shows the body's path through the solar system and its position at the given date. Green and blue lines are shown perpendicular to the ecliptic plane: Green if the path is above the ecliptic plane, blue if it is below. (Left-click and drag to rotate the view; Right-click and drag to move the view; Use scroll wheel to zoom in our out.)

The orbital elements of Parthenope are:

            e (Eccentricity)                : 0.0994330
            a (Semimajor axis)              : 2.4533692
            i (Inclination)                 : 4.63153
            Ω (Longitude of ascending node) : 125.50589
            ω (Argument of perihelion)      : 196.07085
            M (Mean anomaly)                : 71.50262
            Epoch                           : 2024 Oct 17

            L (Longitude of perihelion)     : 141.52696
            B (Latitude of perihelion)      : -1.28084
            P (Orbital period in years)     : 3.84            
        

The light curve chart below shows the estimated development of the minor planet's magnitude.


The all-sky chart below shows the path of the minor planet over the same period as the light curve. The current position is marked yellow.





The following chart shows the path of the minor planet in the next few days. The field of view is optimized for (~10x50) binoculars and finderscopes. A more printer-friendly version of the same chart can be found below.




Ephemerides:
Date       Time       RA (2000)    DEC (2000)    delta   radius  elong  phase   PA    magn
2024-11-21 00:00 UT   03 17 48.1   +10 36 49     1.461    2.437  168.4    4.7    36    9.9 
2024-11-21 13:28 UT   03 17 15.6   +10 35 30     1.463    2.438  167.9    4.9    38    9.9 
2024-11-22 00:00 UT   03 16 50.3   +10 34 30     1.465    2.438  167.5    5.0    39    9.9 
2024-11-23 00:00 UT   03 15 53.1   +10 32 18     1.468    2.439  166.5    5.4    43    9.9 
2024-11-24 00:00 UT   03 14 56.7   +10 30 13     1.472    2.440  165.4    5.8    45   10.0 
2024-11-25 00:00 UT   03 14 01.1   +10 28 15     1.476    2.441  164.3    6.3    48   10.0 
2024-11-26 00:00 UT   03 13 06.3   +10 26 24     1.481    2.443  163.3    6.7    50   10.0 
2024-11-27 00:00 UT   03 12 12.4   +10 24 41     1.486    2.444  162.1    7.1    51   10.1 
2024-11-28 00:00 UT   03 11 19.6   +10 23 05     1.491    2.445  161.0    7.5    53   10.1 
2024-11-29 00:00 UT   03 10 27.8   +10 21 37     1.496    2.446  159.9    8.0    54   10.1 
2024-11-30 00:00 UT   03 09 37.1   +10 20 17     1.501    2.447  158.8    8.4    56   10.1 
2024-12-01 00:00 UT   03 08 47.6   +10 19 05     1.507    2.448  157.6    8.8    57   10.2 
2024-12-02 00:00 UT   03 07 59.3   +10 18 02     1.513    2.449  156.5    9.2    58   10.2 
2024-12-03 00:00 UT   03 07 12.3   +10 17 06     1.519    2.450  155.4    9.7    59   10.2 
2024-12-04 00:00 UT   03 06 26.6   +10 16 20     1.526    2.451  154.2   10.1    59   10.2 
2024-12-05 00:00 UT   03 05 42.3   +10 15 42     1.533    2.452  153.1   10.5    60   10.3 
2024-12-06 00:00 UT   03 04 59.5   +10 15 12     1.540    2.453  151.9   10.9    61   10.3 
2024-12-07 00:00 UT   03 04 18.1   +10 14 51     1.547    2.455  150.8   11.3    62   10.3 
2024-12-08 00:00 UT   03 03 38.2   +10 14 39     1.554    2.456  149.7   11.7    62   10.4 
2024-12-09 00:00 UT   03 02 59.9   +10 14 36     1.562    2.457  148.5   12.1    63   10.4 
2024-12-10 00:00 UT   03 02 23.1   +10 14 42     1.570    2.458  147.4   12.5    63   10.4 
2024-12-11 00:00 UT   03 01 48.0   +10 14 56     1.578    2.459  146.3   12.8    64   10.4 
2024-12-12 00:00 UT   03 01 14.4   +10 15 19     1.587    2.460  145.2   13.2    64   10.5 
2024-12-13 00:00 UT   03 00 42.5   +10 15 51     1.595    2.461  144.1   13.6    64   10.5 
2024-12-14 00:00 UT   03 00 12.3   +10 16 31     1.604    2.462  143.0   13.9    65   10.5 
2024-12-15 00:00 UT   02 59 43.7   +10 17 21     1.613    2.463  141.9   14.3    65   10.5 
2024-12-16 00:00 UT   02 59 16.8   +10 18 19     1.622    2.464  140.8   14.6    66   10.6 
2024-12-17 00:00 UT   02 58 51.7   +10 19 25     1.631    2.465  139.7   15.0    66   10.6 
2024-12-18 00:00 UT   02 58 28.2   +10 20 40     1.641    2.467  138.6   15.3    66   10.6 
2024-12-19 00:00 UT   02 58 06.5   +10 22 04     1.651    2.468  137.5   15.6    67   10.6 
2024-12-20 00:00 UT   02 57 46.5   +10 23 35     1.661    2.469  136.5   15.9    67   10.7 
2024-12-21 00:00 UT   02 57 28.3   +10 25 16     1.671    2.470  135.4   16.2    67   10.7 


    Terminology:
            
    delta:  distance between minor planet and earth in AU
    radius: distance between minor planet and sun in AU
    magn:   magnitude (brightness) estimate    
    ra:     right ascension in hours (24h = 360deg)
    dec:    declination in degrees
    elong:  elongation in degrees (angle sun-earth-minor planet)    
    phase:  phase angle in degrees (angle sun-minor planet-earth)        
    AU:     Astronomical Unit (mean distance between earth and sun: 149597870.7 km
    

Orbital elements provided by the MPC (Minor Planet Center).
Calculations by a modified version of AAPlus, a C# implementation of the AA+ project by PJ Naughter from the algorithms presented in the book "Astronomical Algorithms" by Jean Meeus.
NGC2000 dso catalog and star labels from VizieR as provided by the Strasbourg astronomical Data Center.
Tycho2 catalog from the ESO archive.